User: anonymous   Login
Location: Muenchen
(48.1800°N, 11.5800°E)
Time: 14:40:10
(UTC+02:00)
Language:

Tiros 1 - Orbit

View from above orbital plane
View from above orbital plane
View from above satellite
View from above satellite

Ground track
Ground track

The orbit data is extracted from the following two-line orbital elements,

1 00029U 60002B   14297.57159917  .00000940  00000-0  17444-3 0  3637
2 00029 048.3794 320.3247 0024012 049.7725 310.5283 14.73374421914318
Epoch (UTC): 24 October 2014 13:43:06
Eccentricity: 0.0024012
inclination: 48.3794°
perigee height: 633 km
apogee height: 667 km
right ascension of ascending node: 320.3247°
argument of perigee: 49.7725°
revolutions per day: 14.73374421
mean anomaly at epoch: 310.5283°
orbit number at epoch: 91431

The dashed part of the orbit path shows where the satellite is in the earth's shadow,  

DLR